[[{"header":{"parameterUnit":"m.s-1","parameterCategory":1,"la1":30.2991,"la2":30.254,"lo1":-89.0895,"lo2":-89.0444,"dy":0.0017,"dx":0.0017,"nx":28,"ny":28,"refTime":"2025-05-14T21:00:00:Z","depth":0,"parameterNumber":2,"parameterNumberName":"U-component_of_WINDS"},"data":[0,0,0,0,0,0,0,0,0,0,0,0,0,0,0,0,0,0,0,0,0,0,0,0,0,0,0,0,0,0,0,0,0,0,0,0,0,0,0,0,0,0,0,0,0,0,0,0,0,0,0,0,0,0,0,0,0,0,2.2675,2.2675,0,2.2682,2.2682,2.2682,2.2646,2.2645,2.2644,2.2643,2.2649,2.2651,2.2652,0,0,0,0,0,0,0,0,0,0,0,0,0,2.2627,2.2628,2.2675,2.2675,2.2675,2.2682,2.2682,2.2682,2.2646,2.2645,2.2644,2.2643,2.2649,2.265,2.2652,0,0,0,0,0,0,0,0,0,0,0,0,0,2.2642,2.2628,2.2675,2.2658,2.2657,2.2682,2.2682,2.2682,2.2647,2.2645,2.2644,2.2642,2.2649,2.265,2.2652,2.2693,0,0,2.2657,2.2658,0,0,0,0,0,0,0,0,2.2642,2.2644,2.266,2.2659,2.2658,2.2662,2.2667,2.2686,2.2647,2.265,2.2643,2.2641,2.2655,2.2656,2.266,2.2693,2.2694,2.2657,2.2658,2.2659,2.2659,0,0,0,0,0,0,0,2.264,2.2644,2.2677,2.2661,2.2659,2.2649,2.265,2.2671,2.2661,2.265,2.2647,2.2649,2.2654,2.2659,2.266,2.2694,2.2657,2.2659,2.266,2.266,2.2757,2.2759,0,0,0,0,0,0,2.2642,2.2643,2.2677,2.2678,2.2646,2.2651,2.2652,2.2662,2.2661,2.2659,2.265,2.2647,2.2657,2.2658,2.266,2.2706,2.2659,2.2661,2.2661,2.2756,2.2758,2.2759,0,0,0,0,0,0,2.2641,2.2645,2.2677,2.266,2.2663,2.2654,2.2665,2.2663,2.2668,2.2661,2.2659,2.2658,2.2656,2.2658,2.2685,2.2706,2.2661,2.2663,2.2754,2.2756,2.2759,2.2799,0,0,0,0,0,0,2.264,2.2645,2.2662,2.266,2.2664,2.2702,2.2667,2.2664,2.2671,2.2667,2.2667,2.2666,2.2655,2.2682,2.2686,2.2707,2.2664,2.2752,2.2755,2.2758,2.2796,2.2803,2.2809,0,0,0,0,0,2.2638,2.2674,2.2663,2.2667,2.2684,2.2703,2.2705,2.2692,2.2673,2.2689,2.2684,2.2666,2.2703,2.2685,2.2689,2.2711,2.2751,2.2754,2.2758,2.2793,2.2802,2.2809,0,0,0,0,0,0,2.2678,2.2673,2.2661,2.2697,2.2701,2.2697,2.2717,2.2702,2.2711,2.2707,2.269,2.269,2.2719,2.2718,2.2698,2.275,2.2723,2.2728,2.2749,2.2757,2.2763,2.2762,2.2666,0,0,0,0,0,2.2691,2.2708,2.2702,2.2734,2.2737,2.2727,2.2734,2.2724,2.2727,2.2728,2.2725,2.2728,2.274,2.2749,2.276,2.2796,2.2794,2.2813,2.2819,2.2825,2.2828,2.2844,2.2852,2.2771,2.2771,2.2771,0,0,2.2718,2.2717,2.2729,2.2742,2.2744,2.276,2.2728,2.2747,2.2758,2.2731,2.2755,2.2753,2.2755,2.2786,2.2799,2.2786,2.285,2.2829,2.2833,2.2834,2.2849,2.2856,2.2863,2.2773,2.2773,2.2773,0,0,2.2775,2.2777,2.2802,2.2804,2.2807,2.28,2.2806,2.2804,2.2801,2.2825,2.2804,2.2817,2.2839,2.2841,2.2844,2.2899,2.2882,2.2903,2.2935,2.2951,2.2958,2.2963,2.298,2.2987,2.2907,2.2907,2.2907,0,2.2808,2.2832,2.2818,2.2837,2.2842,2.2818,2.2842,2.2845,2.2851,2.2855,2.284,2.2865,2.2865,2.2894,2.2907,2.2912,2.2917,2.2902,2.2958,2.2963,2.2968,2.2984,2.2991,2.291,2.2909,2.2909,2.2909,0,2.2871,2.2887,2.2908,2.2913,2.2921,2.2943,2.2931,2.294,2.2928,2.2922,2.2945,2.2944,2.2953,2.296,2.2949,2.2987,2.2978,2.2961,2.2934,2.2979,2.2993,2.2999,2.2913,2.2912,2.2911,2.2911,0,0,2.2953,2.2949,2.2956,2.2957,2.2957,2.297,2.299,2.2998,2.3005,2.301,2.3025,2.3043,2.3026,2.303,2.3019,2.3034,2.3074,2.3014,2.3014,2.3023,2.3112,2.3123,2.3131,2.3063,2.3064,2.3065,2.3111,0,2.3007,2.3041,2.3027,2.3062,2.3075,2.3051,2.3068,2.3069,2.3064,2.3073,2.3067,2.3079,2.3058,2.306,2.3073,2.3066,2.3091,2.3063,2.3075,2.3075,2.3073,2.3139,2.3152,2.3195,2.3117,2.3118,2.3119,0,2.3074,2.308,2.3116,2.311,2.3116,2.3131,2.3136,2.3147,2.3147,2.3141,2.3145,2.313,2.3148,2.3122,2.3144,2.3126,2.313,2.3127,2.3128,2.3127,2.3098,2.3138,2.3209,2.3215,2.3128,2.3127,2.3127,0,2.3127,2.3144,2.3167,2.3169,2.3164,2.3175,2.3174,2.3172,2.3177,2.3182,2.3185,2.3192,2.3195,2.32,2.3186,2.3169,2.321,2.3184,2.3204,2.3204,2.3213,2.3212,2.3284,2.3219,2.3219,2.3219,2.3219,0,2.3187,2.3209,2.319,2.3204,2.3227,2.3211,2.3234,2.323,2.3229,2.324,2.322,2.3232,2.3214,2.3223,2.3213,2.3232,2.3234,2.3229,2.3225,2.3229,2.323,2.323,2.3226,2.322,2.322,2.322,2.3219,0,2.325,2.3239,2.3261,2.3254,2.3253,2.327,2.3264,2.3276,2.3268,2.3283,2.3285,2.3273,2.3282,2.327,2.3278,2.3271,2.3296,2.3289,2.3296,2.3293,2.3313,2.3311,2.3387,2.3395,2.3327,2.3327,2.3328,0,2.3288,2.3304,2.3298,2.3304,2.3304,2.3314,2.3319,2.3303,2.3308,2.3308,2.3319,2.3327,2.3332,2.3347,2.3339,2.3344,2.3336,2.3362,2.3337,2.3339,2.3334,2.3332,2.3332,2.3367,2.3368,2.3369,2.3369,0,2.3355,2.3348,2.3356,2.3361,2.3366,2.337,2.3372,2.3378,2.3361,2.3368,2.3376,2.338,2.3388,2.3395,2.3398,2.3395,2.3379,2.3377,2.3382,2.3385,2.3387,2.3384,2.3308,2.3375,2.3375,2.3374,2.3374,2.3374,2.3405,2.3417,2.3414,2.3422,2.3422,2.3423,2.3433,2.3426,2.3433,2.3438,2.3428,2.3439,2.3436,2.3438,2.3437,2.3445,2.3433,2.3441,2.3442,2.3443,2.3445,2.3388,2.3445,2.3445,2.3445,2.3445,2.3445,0,2.3469,2.3466,2.3474,2.3476,2.3482,2.3466,2.3466,2.3472,2.3482,2.3481,2.3485,2.3494,2.35,2.3492,2.3496,2.3504,2.3496,2.3505,2.3503,2.3502,2.3457,2.3451,2.3511,2.3511,2.3511,2.3511,2.3511,2.3511,2.3503,2.3522,2.3514,2.3531,2.3528,2.3538,2.3539,2.3539,2.3538,2.3549,2.3553,2.3548,2.3543,2.3547,2.3551,2.3548,2.355,2.3561,2.3555,2.3512,2.3506,2.35,2.3494,2.3562,2.3562,2.36,2.36,2.36]},{"header":{"parameterUnit":"m.s-1","parameterCategory":1,"la1":30.2991,"la2":30.254,"lo1":-89.0895,"lo2":-89.0444,"dy":0.0017,"dx":0.0017,"nx":28,"ny":28,"refTime":"2025-05-14T21:00:00:Z","depth":0,"parameterNumber":3,"parameterNumberName":"V-component_of_WINDS"},"data":[0,0,0,0,0,0,0,0,0,0,0,0,0,0,0,0,0,0,0,0,0,0,0,0,0,0,0,0,0,0,0,0,0,0,0,0,0,0,0,0,0,0,0,0,0,0,0,0,0,0,0,0,0,0,0,0,0,0,7.3119,7.312,0,7.3178,7.3178,7.3179,7.3114,7.3111,7.3109,7.3107,7.316,7.3163,7.3167,0,0,0,0,0,0,0,0,0,0,0,0,0,7.2945,7.2948,7.3119,7.312,7.3121,7.3177,7.3178,7.3179,7.3114,7.3111,7.3108,7.3105,7.3158,7.3163,7.3167,0,0,0,0,0,0,0,0,0,0,0,0,0,7.3013,7.295,7.3119,7.3096,7.3094,7.3177,7.3178,7.3179,7.3115,7.3111,7.3107,7.3104,7.3157,7.3162,7.3168,7.3275,0,0,7.3185,7.3187,0,0,0,0,0,0,0,0,7.301,7.302,7.3098,7.3097,7.3096,7.3135,7.3136,7.3211,7.3116,7.3107,7.3107,7.3102,7.3154,7.3159,7.3178,7.3278,7.328,7.3185,7.3189,7.3191,7.3192,0,0,0,0,0,0,0,7.3005,7.3017,7.3142,7.3099,7.3098,7.3079,7.3085,7.315,7.315,7.3107,7.3103,7.3111,7.3152,7.3173,7.3179,7.3281,7.3185,7.319,7.3193,7.3196,7.3469,7.3473,0,0,0,0,0,0,7.3004,7.3013,7.314,7.3144,7.3043,7.3086,7.3092,7.3126,7.3149,7.3149,7.3114,7.3108,7.3165,7.3173,7.3181,7.3307,7.3191,7.3196,7.3199,7.3465,7.347,7.3475,0,0,0,0,0,0,7.3,7.3016,7.3138,7.3078,7.3092,7.3093,7.3131,7.3129,7.3149,7.3154,7.3153,7.3135,7.3163,7.3173,7.3252,7.3308,7.3199,7.3204,7.3461,7.3467,7.3472,7.3561,0,0,0,0,0,0,7.2996,7.3015,7.3058,7.3079,7.3095,7.3211,7.3135,7.3133,7.316,7.3152,7.3174,7.3174,7.3161,7.3244,7.3258,7.3313,7.3208,7.3456,7.3464,7.3471,7.3553,7.3569,7.3583,0,0,0,0,0,7.299,7.3079,7.306,7.3076,7.3149,7.3215,7.3223,7.3208,7.3165,7.3206,7.3209,7.3173,7.33,7.3253,7.3268,7.3326,7.3452,7.3461,7.347,7.3546,7.3566,7.3583,0,0,0,0,0,0,7.3062,7.3082,7.3061,7.316,7.3187,7.3204,7.3256,7.323,7.3267,7.3258,7.3235,7.324,7.3325,7.3333,7.3281,7.343,7.3368,7.3381,7.3422,7.344,7.3455,7.3451,7.3212,0,0,0,0,0,7.309,7.3144,7.3157,7.3244,7.3258,7.3255,7.3283,7.3269,7.3294,7.3304,7.3313,7.3337,7.3381,7.3411,7.3453,7.3554,7.3557,7.3601,7.3616,7.3628,7.3639,7.3691,7.3711,7.3504,7.3504,7.3504,0,0,7.3147,7.3165,7.32,7.3259,7.3277,7.3331,7.3264,7.3325,7.3364,7.3312,7.3388,7.3396,7.342,7.3511,7.3551,7.3521,7.3697,7.364,7.3649,7.3653,7.3702,7.3722,7.3739,7.351,7.3509,7.3508,0,0,7.328,7.3299,7.3373,7.3393,7.3423,7.342,7.3438,7.3459,7.3463,7.3539,7.3501,7.3546,7.3624,7.3643,7.3663,7.3802,7.377,7.3816,7.3894,7.3946,7.3962,7.3976,7.4024,7.4042,7.3827,7.3827,7.3827,0,7.3347,7.3429,7.3413,7.3477,7.3503,7.3461,7.3534,7.3553,7.3594,7.3612,7.3578,7.3675,7.3688,7.3782,7.3816,7.3834,7.3852,7.3814,7.3961,7.3976,7.3989,7.4034,7.4053,7.3833,7.3832,7.3831,7.3831,0,7.3509,7.3567,7.3622,7.3665,7.3697,7.3765,7.3757,7.3791,7.3774,7.3774,7.3851,7.3867,7.391,7.3931,7.3915,7.4023,7.4002,7.3965,7.3903,7.4014,7.4056,7.4074,7.384,7.3838,7.3837,7.3835,0,0,7.3689,7.3722,7.3743,7.3761,7.3791,7.3834,7.3898,7.3943,7.3972,7.4001,7.4053,7.412,7.4086,7.4109,7.4094,7.4139,7.4246,7.4096,7.4096,7.4122,7.4364,7.4392,7.4412,7.4226,7.4229,7.4232,7.4362,0,7.3821,7.3936,7.3923,7.4031,7.4083,7.4044,7.41,7.4122,7.4124,7.4166,7.4167,7.4214,7.4166,7.4179,7.4223,7.4224,7.4294,7.4215,7.4272,7.4274,7.4266,7.4435,7.4464,7.4586,7.4378,7.4381,7.4383,0,7.399,7.4028,7.4142,7.4163,7.4184,7.4235,7.4274,7.4316,7.434,7.4338,7.4363,7.434,7.4402,7.434,7.4424,7.437,7.4392,7.4397,7.4401,7.4405,7.4335,7.4442,7.4625,7.4643,7.441,7.4407,7.4406,0,7.4108,7.4187,7.4265,7.4282,7.4309,7.4345,7.4358,7.4378,7.4406,7.4439,7.4456,7.4496,7.4517,7.4548,7.4535,7.449,7.4621,7.4557,7.4619,7.4619,7.4647,7.4646,7.4836,7.4664,7.4664,7.4663,7.4663,0,7.4256,7.4327,7.4318,7.4367,7.4444,7.4428,7.4504,7.4511,7.453,7.4577,7.4545,7.4589,7.457,7.4612,7.4602,7.4673,7.4683,7.4681,7.4677,7.4684,7.4684,7.4697,7.4688,7.4668,7.4667,7.4666,7.4665,0,7.4401,7.4398,7.4481,7.4499,7.4506,7.4562,7.4577,7.462,7.462,7.4679,7.4692,7.469,7.4738,7.4729,7.4781,7.4774,7.4862,7.4849,7.4855,7.4851,7.4913,7.4907,7.5117,7.5143,7.4956,7.4958,7.496,0,7.4495,7.4549,7.4574,7.4604,7.462,7.4669,7.4697,7.4682,7.4712,7.4744,7.4783,7.4829,7.4864,7.4942,7.4944,7.4984,7.497,7.5041,7.4975,7.498,7.4969,7.4966,7.497,7.5053,7.5055,7.5057,7.5059,0,7.4662,7.4658,7.4701,7.4744,7.4779,7.4811,7.484,7.4866,7.4853,7.4888,7.4938,7.4966,7.502,7.5065,7.5101,7.5111,7.5082,7.5079,7.5095,7.5102,7.5103,7.5102,7.4889,7.5074,7.5073,7.5072,7.5071,7.507,7.4784,7.4829,7.4854,7.4903,7.4923,7.4951,7.4993,7.4998,7.504,7.5084,7.5072,7.5128,7.5149,7.5196,7.521,7.5252,7.5225,7.5249,7.5255,7.5261,7.5268,7.5097,7.5259,7.5258,7.5258,7.5258,7.5257,0,7.4948,7.4962,7.5007,7.5049,7.5087,7.5059,7.5089,7.5122,7.5172,7.5196,7.5232,7.5288,7.5331,7.5337,7.5377,7.541,7.5397,7.5421,7.5417,7.542,7.529,7.5272,7.543,7.543,7.543,7.543,7.543,7.543,7.5038,7.5114,7.5113,7.5197,7.521,7.5267,7.5286,7.531,7.5329,7.5394,7.543,7.5434,7.545,7.5491,7.5529,7.5529,7.5545,7.5573,7.5568,7.5446,7.5429,7.5413,7.5395,7.5577,7.5577,7.5694,7.5695,7.5696]}]]